GFSNE_850_thetae_021.txt.gz
Theta_e
326 328 329 331 330 329 328 329 329 327 325 325 323 320 318 318 318 321 320 318 317 317 317 317 317 317 318 318 323 328 335 335 340 341 342 343 342 341
328 327 327 326 328 327 327 329 328 328 326 324 325 324 320 320 320 319 321 320 319 318 317 317 317 317 317 317 318 321 327 334 335 338 339 343 342 342
326 326 326 328 328 328 327 327 327 326 326 324 325 325 320 321 323 323 322 322 319 319 318 317 317 317 317 317 318 317 320 327 333 336 337 336 339 340
325 326 327 328 327 326 325 325 325 325 325 326 325 327 326 321 320 320 320 320 319 319 318 318 318 318 318 317 318 318 318 320 327 333 336 336 335 336
326 325 324 326 325 324 325 325 327 326 326 325 324 325 325 321 321 321 322 321 321 320 319 318 318 319 318 317 317 318 318 318 321 329 333 335 335 335
326 326 325 325 325 324 324 323 323 324 326 325 323 325 326 325 324 324 324 324 323 323 321 319 319 319 319 317 317 318 319 318 319 323 330 334 335 334
325 325 324 326 326 326 324 323 322 325 327 327 326 326 325 325 324 323 324 323 322 322 321 321 321 321 320 319 320 320 319 319 318 319 327 332 335 334
326 325 325 326 327 327 326 324 322 322 323 324 326 326 323 324 323 324 323 321 321 321 321 321 320 319 319 320 320 319 319 320 319 319 321 331 334 335
328 328 327 326 326 326 325 323 322 322 322 322 322 322 322 322 321 319 318 319 320 321 320 319 319 318 318 319 319 319 319 319 319 319 321 330 334 335
329 329 328 327 326 325 324 321 322 322 319 319 320 320 320 319 317 317 319 320 319 320 320 319 319 318 318 318 318 318 319 319 319 319 322 330 333 335
330 329 328 327 324 324 321 320 317 317 319 319 319 319 317 314 319 319 320 319 320 319 319 318 317 317 317 318 318 319 319 320 319 319 323 330 333 334
329 326 327 325 324 321 320 318 317 318 318 317 317 315 315 319 320 319 319 318 319 318 317 317 317 317 318 319 320 320 320 320 320 320 324 331 333 333
327 326 326 325 322 320 319 317 317 318 315 315 314 316 317 318 318 318 317 317 318 318 317 318 317 319 320 321 322 321 322 323 322 320 329 332 333 334
326 327 326 323 321 320 317 316 318 316 314 314 315 316 316 316 316 314 313 316 318 317 318 318 318 321 323 322 321 322 324 324 325 325 333 333 332 334
327 326 323 321 319 317 316 317 317 315 313 314 314 313 313 311 310 309 309 316 317 317 317 319 321 323 322 322 322 322 323 326 326 332 334 332 333 336
325 322 320 318 317 316 316 317 314 313 313 313 311 310 309 308 308 307 311 318 318 317 317 319 321 323 324 324 324 325 326 330 334 335 334 334 335 336
320 319 317 316 315 316 316 314 312 312 309 308 307 307 307 306 305 305 314 318 317 316 317 319 320 324 324 325 329 329 330 333 335 335 335 337 337 337
318 316 316 314 315 315 314 312 310 308 308 308 307 305 304 303 303 306 315 318 317 317 316 316 318 322 325 326 327 333 334 336 336 334 335 336 337 337
315 315 315 315 315 314 312 310 308 308 306 303 302 301 302 303 304 308 312 318 318 317 317 318 317 318 319 319 321 326 333 335 336 335 335 336 337 337
314 314 313 314 313 311 309 308 308 306 303 301 301 301 301 302 304 306 310 316 317 317 317 315 316 318 317 318 318 317 325 332 336 335 336 336 336 335
309 311 311 310 309 308 308 307 306 303 299 299 300 300 301 301 302 304 309 313 316 317 316 316 317 316 318 318 318 317 317 320 332 335 335 336 336 336
307 308 308 307 306 305 302 301 299 297 298 299 299 299 300 300 301 302 307 312 315 316 317 317 317 316 316 315 315 315 315 316 323 329 333 336 336 336
306 306 306 304 302 299 298 296 297 298 297 297 297 298 299 300 300 301 303 307 310 314 316 317 317 317 316 316 317 316 316 314 315 326 327 324 333 336

GFSNE_850_thetae_024.txt.gz
Theta_e
334 334 333 332 331 331 331 330 329 329 328 328 328 327 327 326 327 326 326 324 319 321 319 318 318 318 317 317 317 317 317 318 324 333 336 341 342 342
333 333 334 331 331 332 331 331 331 330 329 328 326 327 328 328 328 326 328 325 323 322 322 320 319 318 318 317 317 317 317 317 317 321 332 335 339 342
334 334 334 334 333 331 331 331 331 330 329 328 327 328 329 330 330 329 329 328 327 326 323 319 318 318 317 317 318 318 318 317 318 318 319 330 335 338
334 334 333 333 333 331 331 331 330 330 329 328 328 329 328 328 329 329 329 327 327 326 325 321 318 317 317 318 318 318 317 317 317 318 318 319 328 334
334 334 333 333 333 332 332 330 329 330 329 330 329 328 328 327 327 329 328 326 326 326 325 324 324 322 317 316 317 318 318 317 317 317 318 318 319 328
335 334 334 333 333 332 332 331 331 330 329 329 328 329 328 327 327 327 327 325 324 325 325 324 323 322 323 323 322 321 321 319 318 318 319 319 318 321
335 335 335 334 326 326 328 329 329 328 328 326 326 327 327 327 327 326 324 325 323 325 323 322 322 323 324 323 323 322 322 321 319 319 318 319 319 318
336 336 336 331 327 326 325 326 327 326 324 326 325 326 327 327 324 324 324 323 323 322 321 322 323 323 323 323 322 320 320 320 319 319 319 319 319 318
332 333 329 329 332 329 327 326 325 324 322 323 324 326 325 325 324 323 322 322 321 321 323 323 323 323 322 321 321 320 318 320 319 319 319 319 319 319
330 326 327 329 330 329 327 326 326 327 327 325 325 324 323 322 320 319 318 317 319 321 322 323 322 322 320 320 318 319 319 320 321 320 319 319 319 319
329 325 326 328 329 328 327 324 324 325 324 323 322 319 316 315 315 318 319 321 321 321 321 321 320 320 319 319 320 320 321 323 323 322 319 319 319 319
326 326 326 326 326 326 325 323 324 325 324 322 320 320 319 320 320 320 320 320 321 320 319 319 320 318 318 318 319 321 322 323 323 322 321 320 320 319
327 327 327 327 326 325 323 321 322 319 316 318 318 317 318 319 320 319 320 319 317 317 317 319 317 318 317 317 319 322 323 322 324 323 322 320 320 319
328 331 329 327 326 324 321 320 318 316 317 318 316 316 317 317 317 316 315 314 315 315 319 317 317 317 317 318 320 323 323 323 323 322 323 323 320 319
328 329 327 326 324 321 319 318 316 317 318 316 315 316 316 314 314 313 313 311 313 318 320 319 317 317 318 318 322 323 323 324 324 324 324 329 323 320
325 326 326 323 320 319 318 317 317 317 314 314 314 313 313 312 312 310 308 310 316 319 319 318 317 317 319 322 323 323 323 324 326 329 327 329 327 322
325 324 322 321 320 320 320 318 316 314 313 312 312 311 311 309 308 307 307 312 318 318 319 319 316 317 318 320 320 321 326 328 329 329 327 331 330 330
321 321 321 321 320 320 318 316 314 312 312 310 309 309 308 306 306 306 309 313 317 317 318 317 317 317 318 317 319 318 318 327 332 333 333 334 334 334
318 319 320 320 319 317 315 313 311 310 309 308 308 307 305 305 305 306 309 313 316 317 317 318 317 316 315 315 316 316 315 325 333 334 334 335 335 334
316 317 318 317 316 314 312 311 310 308 308 307 306 305 304 304 304 305 308 313 314 315 317 317 316 316 316 314 314 315 315 317 328 333 337 336 336 337
314 313 313 313 311 311 309 308 307 306 304 304 304 303 303 303 304 304 306 311 312 314 315 315 316 316 316 316 314 314 314 314 316 325 334 336 336 338
310 310 310 309 309 309 307 304 303 304 304 303 303 303 303 303 303 303 304 307 311 313 314 316 316 316 315 316 314 313 313 314 315 316 323 335 336 336
310 309 309 308 307 304 302 302 302 303 302 302 302 302 302 302 303 303 303 304 308 311 314 314 316 316 314 316 315 314 311 312 312 314 318 325 332 336

GFSNE_850_thetae_030.txt.gz
Theta_e
332 333 334 334 333 332 333 332 331 330 331 331 332 332 330 329 330 329 329 329 329 326 324 324 323 321 319 320 320 319 318 318 317 317 317 317 317 318
336 335 335 335 334 333 332 332 332 331 330 329 331 332 331 330 330 330 330 329 329 328 329 328 329 327 324 321 320 320 319 318 318 318 317 317 317 317
326 332 336 333 329 332 334 334 332 333 331 329 329 332 331 330 329 328 328 328 329 329 330 330 328 325 325 325 324 321 318 318 318 317 317 317 317 317
323 322 323 329 335 334 332 331 331 331 331 331 330 331 330 329 328 328 329 327 328 329 327 327 328 328 326 326 326 324 323 321 320 317 317 317 317 318
323 322 323 332 333 332 334 333 332 331 331 330 331 331 328 330 329 330 329 329 327 327 327 328 327 327 325 324 325 325 323 323 324 323 320 318 319 319
322 322 328 333 332 333 333 332 332 332 333 332 329 330 331 328 328 327 327 326 326 326 327 327 325 324 325 326 325 324 322 323 324 324 324 324 323 323
326 325 329 330 331 335 333 331 329 328 328 327 327 326 325 326 325 324 326 328 328 327 326 325 323 323 324 324 323 322 324 325 325 325 324 323 322 322
326 333 332 336 337 335 332 331 326 325 326 328 327 327 326 325 324 325 327 326 325 322 325 323 319 319 315 314 319 322 324 324 324 322 322 323 322 322
329 332 331 336 333 333 328 329 326 326 327 328 327 325 326 325 324 324 323 322 321 318 315 316 319 320 321 321 323 325 321 322 322 322 322 322 320 318
337 334 332 333 331 329 327 328 328 326 326 327 324 321 324 325 325 324 323 318 317 318 320 321 321 321 322 323 321 324 322 322 320 319 318 318 319 319
332 333 333 329 329 329 329 330 329 327 326 326 327 327 327 326 324 321 318 319 320 321 320 320 321 322 320 319 318 316 315 319 318 318 319 321 322 321
337 334 332 330 331 330 331 329 327 327 326 327 327 326 324 322 320 321 319 320 320 321 320 321 319 315 312 314 317 319 319 318 317 318 319 322 323 323
337 336 336 333 330 330 328 328 328 327 327 326 324 321 319 321 322 320 320 319 320 320 318 313 310 310 316 318 318 319 318 317 316 317 319 320 320 322
336 337 335 332 329 328 329 327 326 326 324 322 319 319 321 321 318 318 318 317 314 313 311 310 310 317 319 318 319 319 316 316 317 317 318 317 318 322
333 332 328 325 329 328 328 326 326 323 320 318 320 321 319 317 316 315 314 312 310 309 309 311 318 316 317 318 318 317 316 316 316 318 317 315 318 320
328 327 328 328 328 327 326 323 320 320 319 319 319 317 316 315 314 312 311 309 308 310 312 315 315 316 317 316 316 315 315 314 314 313 313 315 319 321
328 328 328 326 325 324 324 323 322 320 319 318 318 316 315 313 312 310 308 307 309 309 314 315 315 316 316 316 314 314 314 313 311 310 312 314 320 327
327 329 328 326 326 326 324 322 320 319 319 317 316 315 313 312 309 308 307 308 307 310 313 313 315 316 315 314 314 313 313 310 309 310 310 312 320 330
327 326 323 323 323 321 321 320 319 318 316 315 314 313 311 309 307 307 307 307 307 306 310 315 316 315 314 314 313 312 310 308 308 309 309 315 322 330
319 320 320 320 320 320 319 318 317 316 315 313 312 311 308 307 306 306 306 306 306 306 312 312 314 313 314 314 313 312 309 307 307 307 310 318 326 331
320 318 317 317 317 316 316 315 314 313 312 309 307 307 307 306 306 306 305 306 306 307 309 311 314 313 314 313 313 311 310 308 307 306 306 313 317 328
316 314 314 313 314 313 313 313 311 308 307 307 307 306 305 305 305 305 305 306 306 307 306 307 313 313 314 313 312 310 309 309 307 307 306 305 305 307
315 314 313 313 312 312 310 307 306 306 306 306 305 304 304 305 305 305 305 306 306 306 305 309 312 310 310 312 311 310 309 308 304 305 306 305 304 306

GFSNE_850_thetae_033.txt.gz
Theta_e
324 320 325 333 333 333 333 333 331 331 329 329 330 331 331 330 329 330 330 330 329 328 327 328 327 327 328 325 322 321 321 320 320 318 318 317 317 317
326 325 328 326 329 332 333 331 331 331 330 330 328 330 332 331 331 331 329 329 328 326 327 327 329 328 328 326 325 324 321 319 318 318 318 318 317 317
328 328 331 331 329 331 333 333 333 332 332 331 330 329 330 329 328 328 326 327 328 327 326 328 328 327 326 326 326 326 325 324 323 321 319 317 317 317
331 329 329 328 325 322 331 332 331 330 330 331 330 327 328 330 327 328 329 329 329 326 328 326 327 326 327 327 328 327 325 325 324 323 323 323 318 316
329 329 324 323 320 328 330 330 332 331 332 331 329 328 327 327 330 329 330 330 327 327 324 327 326 326 328 325 324 325 325 325 325 322 322 323 324 323
327 326 324 323 322 328 330 331 330 331 331 331 330 330 329 328 329 327 326 325 322 325 327 328 327 326 326 325 324 324 325 324 323 322 324 324 324 324
327 333 325 324 325 328 329 329 331 330 328 327 325 326 327 327 326 325 323 323 323 323 323 322 322 321 320 318 316 318 320 318 319 322 324 324 324 323
327 326 326 327 328 329 331 332 332 333 331 326 325 327 327 328 326 325 324 322 322 318 321 317 315 313 315 318 320 320 321 322 322 322 321 321 321 322
330 329 332 329 332 335 334 332 334 331 330 326 327 326 327 323 323 323 323 324 322 319 317 319 319 319 318 319 319 320 322 321 322 322 322 322 322 321
333 332 334 332 333 329 330 330 329 329 330 329 327 326 325 325 326 327 325 324 321 318 319 320 320 320 321 320 319 320 320 321 321 319 318 317 318 318
334 335 336 337 336 331 329 328 328 329 331 329 326 326 326 326 325 324 323 322 320 320 320 321 321 320 320 316 312 311 315 316 317 318 318 317 317 317
335 334 334 336 334 332 329 328 330 330 328 327 327 327 327 325 321 320 321 322 322 322 319 317 315 313 311 311 312 317 317 317 317 318 318 317 316 317
337 338 338 337 334 331 329 328 328 328 327 326 326 325 323 319 321 322 321 318 316 315 314 313 312 310 309 312 317 315 316 316 316 316 316 315 315 317
339 338 337 334 332 327 327 323 324 327 326 325 322 320 319 320 317 317 317 315 314 312 311 310 309 309 313 315 315 315 316 315 315 315 315 314 314 316
339 338 335 333 330 330 328 328 327 324 320 319 318 319 320 318 317 315 315 313 311 311 309 310 312 316 315 315 315 315 314 314 314 313 313 314 312 311
337 336 333 332 328 326 324 323 322 321 320 319 318 318 318 316 315 314 312 311 308 307 307 311 314 312 314 315 315 314 314 313 313 312 310 310 310 311
331 331 329 328 326 326 325 324 324 322 320 319 318 319 317 316 315 312 308 307 307 307 307 307 310 313 314 314 315 315 313 313 311 309 308 308 310 309
326 327 327 327 325 324 324 326 324 322 320 319 319 318 315 313 311 308 307 306 307 306 306 306 312 313 313 312 314 313 312 310 309 307 306 306 308 314
327 327 327 326 323 324 321 321 320 320 319 318 315 314 313 312 308 306 306 306 306 306 306 310 311 310 312 314 314 313 310 309 307 306 305 304 306 313
320 319 319 320 320 321 319 319 318 316 315 314 314 313 312 308 306 306 305 305 305 305 307 308 306 310 312 312 312 312 309 307 305 304 304 304 306 311
321 320 318 318 317 317 316 316 316 316 316 313 307 307 307 305 305 305 305 305 306 306 307 306 307 311 309 310 311 311 309 308 304 302 303 303 303 307
316 315 315 314 314 314 314 313 313 312 307 307 307 305 305 305 304 305 305 305 306 305 306 305 308 310 308 306 310 309 309 308 306 302 302 302 301 301
316 315 315 313 313 312 310 309 305 306 306 306 305 305 304 304 305 305 305 305 305 305 305 305 305 308 307 303 307 308 308 307 305 301 300 302 302 302